This is the latest recevied weather packets stored in our database for station/object KE8WMS. If no packets are shown the sender has not sent any weather packets the latest 10 day(s).
| Time | Temp. | Humidity | Pressure | Rain* | Wind** | Luminosity | Snow |
|---|---|---|---|---|---|---|---|
| 1787665367 | 20.56° C | 86% | 1015.5 hPa | 0 mm | - | 58 W/m² | - |
| 1787665063 | 20° C | 86% | 1015.5 hPa | 0 mm | - | 61 W/m² | - |
| 1787664760 | 20° C | 86% | 1015.5 hPa | 0 mm | - | 59 W/m² | - |
| 1787664459 | 20° C | 87% | 1015.4 hPa | 0 mm | - | 57 W/m² | - |
| 1787664155 | 19.44° C | 88% | 1015.3 hPa | 0 mm | - | 56 W/m² | - |
| 1787663854 | 19.44° C | 89% | 1015.2 hPa | 0 mm | - | 56 W/m² | - |
| 1787663550 | 19.44° C | 88% | 1015.3 hPa | 0 mm | - | 56 W/m² | - |
| 1787663245 | 18.89° C | 90% | 1015.2 hPa | 0 mm | - | 61 W/m² | - |
| 1787662941 | 18.89° C | 90% | 1015.2 hPa | 0 mm | - | 60 W/m² | - |
| 1787662641 | 18.89° C | 90% | 1015.4 hPa | 0 mm | - | 57 W/m² | - |
| 1787662336 | 18.33° C | 91% | 1015.1 hPa | 0 mm | - | 52 W/m² | - |
| 1787662032 | 18.33° C | 91% | 1015 hPa | 0 mm | - | 50 W/m² | - |
| 1787661729 | 18.33° C | 91% | 1015.1 hPa | 0 mm | - | 48 W/m² | - |
| 1787661427 | 17.78° C | 92% | 1015.1 hPa | 0 mm | - | 45 W/m² | - |
| 1787661127 | 17.78° C | 92% | 1015.2 hPa | 0 mm | - | 42 W/m² | - |
| 1787660825 | 17.78° C | 93% | 1015 hPa | 0 mm | - | 40 W/m² | - |
| 1787660521 | 17.22° C | 94% | 1015.1 hPa | 0 mm | - | 38 W/m² | - |
| 1787660220 | 16.67° C | 95% | 1014.8 hPa | 0 mm | - | 36 W/m² | - |
| 1787659916 | 16.67° C | 95% | 1015.1 hPa | 0 mm | - | 34 W/m² | - |
| 1787659613 | 16.67° C | 95% | 1015 hPa | 0 mm | - | 33 W/m² | - |
| 1787659309 | 16.67° C | 96% | 1015.1 hPa | 0 mm | - | 34 W/m² | - |
| 1787659009 | 16.11° C | 96% | 1015 hPa | 0 mm | - | 30 W/m² | - |
| 1787658709 | 16.11° C | 97% | 1015 hPa | 0 mm | - | 28 W/m² | - |
| 1787658408 | 16.11° C | 97% | 1014.9 hPa | 0 mm | - | 30 W/m² | - |
| 1787658104 | 15.56° C | 97% | 1014.8 hPa | 0 mm | - | 30 W/m² | - |
* Rain latest hour (hover to see other rain measurements)
** Current wind speed in m/s (hover to see current wind gust speed)